GW2646 Weather Reports


Display with metric or nautical units.
time (UTC)temp
F
wind
direction
speed
MPH
gust
MPH
rain 1hr
in
rain 24hr
in
rain mn
in
humidity
%
barometer
mb
20260906183059 64 311 1.0 6.0 0.00 0.02 0.01 69 1015.9
20260906182548 65 315 0.0 7.0 0.00 0.02 0.01 68 1015.9
20260906182048 64 178 2.0 7.0 0.00 0.02 0.01 70 1016.0
20260906181605 64 186 2.0 5.0 0.00 0.02 0.01 69 1016.0
20260906181047 63 184 0.0 4.0 0.00 0.02 0.01 72 1016.0
20260906180547 62 290 0.0 5.0 0.00 0.02 0.01 73 1015.9
20260906180106 62 0 0.0 5.0 0.00 0.02 0.01 73 1015.9
20260906175547 62 283 0.0 4.0 0.00 0.02 0.01 75 1015.9
20260906175046 62 0 1.0 4.0 0.00 0.02 0.01 75 1015.9
20260906174601 62 323 0.0 2.0 0.00 0.02 0.01 75 1016.0
20260906174046 61 322 0.0 4.0 0.00 0.02 0.01 76 1016.0
20260906173546 61 322 0.0 4.0 0.00 0.02 0.01 78 1016.0
20260906173106 60 0 1.0 5.0 0.00 0.02 0.01 77 1016.0
20260906172545 60 252 0.0 5.0 0.00 0.02 0.01 78 1015.9
20260906172047 60 307 2.0 5.0 0.00 0.02 0.01 78 1016.0
20260906171601 59 295 1.0 6.0 0.00 0.02 0.01 78 1016.1
20260906171047 59 0 1.0 6.0 0.00 0.02 0.01 79 1016.3
20260906170546 59 0 1.0 5.0 0.00 0.02 0.01 78 1016.2
20260906170059 58 337 1.0 4.0 0.00 0.02 0.01 79 1016.1
20260906165547 58 310 1.0 5.0 0.00 0.03 0.01 79 1016.1
20260906165046 58 0 1.0 5.0 0.00 0.03 0.01 80 1016.1
20260906164615 57 0 1.0 5.0 0.00 0.03 0.01 80 1016.1
20260906164047 57 327 0.0 3.0 0.00 0.03 0.01 81 1016.0
20260906163547 57 327 1.0 3.0 0.00 0.03 0.01 79 1016.1
20260906163059 56 329 0.0 2.0 0.00 0.03 0.01 80 1016.0
20260906162547 56 0 0.0 3.0 0.00 0.03 0.01 84 1016.1
20260906162047 55 332 0.0 3.0 0.00 0.03 0.01 86 1016.1
20260906161601 54 0 0.0 1.0 0.00 0.03 0.01 90 1016.2
20260906161046 53 0 0.0 0.0 0.00 0.03 0.01 92 1016.2
20260906160547 53 0 0.0 2.0 0.00 0.03 0.01 93 1016.2
20260906160110 53 0 0.0 2.0 0.00 0.03 0.01 93 1016.2
20260906155545 51 0 0.0 2.0 0.00 0.03 0.01 96 1016.3
20260906155051 51 0 0.0 2.0 0.00 0.03 0.01 96 1016.2
20260906154601 51 331 0.0 2.0 0.00 0.03 0.01 96 1016.1
20260906154050 51 0 0.0 2.0 0.00 0.03 0.01 97 1016.1
20260906153546 50 0 0.0 2.0 0.00 0.03 0.01 97 1016.1
20260906153103 50 0 0.0 3.0 0.00 0.03 0.01 97 1016.1
20260906152546 50 331 0.0 3.0 0.00 0.03 0.01 97 1016.1
20260906152044 50 332 0.0 2.0 0.00 0.03 0.01 97 1016.1
20260906151606 50 0 0.0 2.0 0.00 0.03 0.01 97 1016.0
20260906151046 50 331 1.0 2.0 0.00 0.03 0.01 98 1016.1
20260906150551 49 0 0.0 1.0 0.00 0.03 0.01 97 1016.1
20260906150101 49 0 0.0 0.0 0.00 0.03 0.01 97 1016.1
20260906145546 48 0 0.0 0.0 0.00 0.03 0.01 97 1016.1
20260906145051 48 0 0.0 0.0 0.00 0.03 0.01 97 1016.1
20260906144631 48 0 0.0 1.0 0.00 0.03 0.01 97 1016.0
20260906144047 48 0 0.0 1.0 0.00 0.03 0.01 97 1016.0
20260906143546 48 0 0.0 1.0 0.01 0.03 0.01 97 1016.0
20260906143115 48 0 0.0 0.0 0.01 0.03 0.01 97 1016.0
20260906142548 48 0 0.0 0.0 0.01 0.03 0.01 97 1016.1
20260906142047 48 0 0.0 0.0 0.01 0.03 0.01 97 1016.1
20260906141557 48 0 0.0 0.0 0.01 0.03 0.01 97 1016.1
20260906141047 48 0 0.0 0.0 0.01 0.03 0.01 97 1016.1
20260906140547 48 0 0.0 0.0 0.01 0.03 0.01 97 1016.1
20260906140103 48 0 0.0 0.0 0.01 0.03 0.01 97 1016.1
20260906135549 48 0 0.0 1.0 0.01 0.03 0.01 97 1016.1
20260906135047 48 0 0.0 1.0 0.01 0.03 0.01 97 1016.2
20260906134601 47 0 0.0 0.0 0.01 0.03 0.01 96 1016.1
20260906134047 47 0 0.0 0.0 0.01 0.03 0.01 96 1016.1
20260906133546 47 0 0.0 0.0 0.00 0.02 0.00 96 1016.2
20260906133106 48 0 0.0 0.0 0.00 0.02 0.00 96 1016.2
20260906132547 48 0 0.0 1.0 0.00 0.02 0.00 96 1016.2
20260906132049 48 0 0.0 1.0 0.00 0.02 0.00 96 1016.2
20260906131610 48 0 0.0 0.0 0.00 0.02 0.00 96 1016.1
20260906131047 48 0 0.0 1.0 0.00 0.02 0.00 96 1016.0
20260906130546 48 0 0.0 1.0 0.00 0.02 0.00 96 1016.0
20260906130103 48 0 0.0 0.0 0.00 0.02 0.00 96 1015.9
20260906125548 48 0 0.0 0.0 0.00 0.02 0.00 96 1015.9
20260906125047 48 0 0.0 0.0 0.00 0.02 0.00 96 1015.9
20260906124611 48 0 0.0 0.0 0.00 0.02 0.00 96 1015.9
20260906124047 48 0 0.0 1.0 0.00 0.02 0.00 96 1016.0
20260906123547 48 0 0.0 1.0 0.00 0.02 0.00 96 1016.0
20260906123106 48 0 0.0 0.0 0.00 0.02 0.00 96 1016.0
20260906122618 48 0 0.0 0.0 0.00 0.02 0.00 96 1016.0
20260906122050 48 0 0.0 0.0 0.00 0.02 0.00 96 1016.1
20260906121602 48 0 0.0 0.0 0.00 0.02 0.00 96 1016.1
20260906121047 48 0 0.0 0.0 0.00 0.02 0.00 96 1016.1
20260906120547 49 0 0.0 0.0 0.00 0.02 0.00 96 1016.2
20260906120122 49 0 0.0 0.0 0.00 0.02 0.00 96 1016.2
20260906115548 49 0 0.0 0.0 0.00 0.02 0.00 96 1016.2
20260906115046 49 0 0.0 0.0 0.00 0.02 0.00 95 1016.2
20260906114559 49 0 0.0 0.0 0.00 0.02 0.00 95 1016.2
20260906114046 50 0 0.0 0.0 0.00 0.02 0.00 96 1016.2
20260906113546 50 0 0.0 0.0 0.00 0.02 0.00 96 1016.2
20260906113057 50 0 0.0 0.0 0.00 0.02 0.00 96 1016.1
20260906112546 50 0 0.0 0.0 0.00 0.02 0.00 96 1016.2
20260906112046 50 0 0.0 0.0 0.00 0.02 0.00 96 1016.2
20260906111557 50 0 0.0 0.0 0.00 0.02 0.00 96 1016.3
20260906111050 51 0 0.0 0.0 0.00 0.02 0.00 96 1016.3
20260906110549 51 0 0.0 0.0 0.00 0.02 0.00 96 1016.4
20260906110100 50 0 0.0 0.0 0.00 0.02 0.00 96 1016.4
20260906105548 51 0 0.0 0.0 0.00 0.02 0.00 96 1016.3
20260906105047 50 0 0.0 0.0 0.00 0.02 0.00 96 1016.2
20260906104600 50 0 0.0 0.0 0.00 0.02 0.00 96 1016.2
20260906104048 50 0 0.0 0.0 0.00 0.02 0.00 96 1016.2
20260906103546 50 0 0.0 0.0 0.00 0.02 0.00 95 1016.2
20260906103058 50 0 0.0 0.0 0.00 0.02 0.00 95 1016.1
20260906102548 50 0 0.0 0.0 0.00 0.02 0.00 95 1016.0
20260906102045 50 0 0.0 0.0 0.00 0.02 0.00 95 1016.0
20260906101603 50 0 0.0 1.0 0.00 0.02 0.00 96 1016.0
20260906101047 50 0 0.0 1.0 0.00 0.02 0.00 96 1016.0
20260906100547 50 0 0.0 1.0 0.00 0.02 0.00 96 1016.0
20260906100105 50 0 0.0 0.0 0.00 0.02 0.00 95 1016.0
20260906095549 50 0 0.0 0.0 0.00 0.02 0.00 95 1016.0
20260906095047 50 0 0.0 0.0 0.00 0.02 0.00 96 1016.0
20260906094601 50 0 0.0 0.0 0.00 0.02 0.00 95 1016.1
20260906094046 50 0 0.0 0.0 0.00 0.02 0.00 95 1016.1
20260906093547 50 0 0.0 0.0 0.00 0.02 0.00 95 1016.1
20260906093116 51 0 0.0 0.0 0.00 0.02 0.00 95 1016.1
20260906092544 51 0 0.0 0.0 0.00 0.02 0.00 95 1016.2
20260906092047 51 0 0.0 0.0 0.00 0.02 0.00 95 1016.2
20260906091604 51 0 0.0 0.0 0.00 0.02 0.00 95 1016.4
20260906091048 51 0 0.0 1.0 0.00 0.02 0.00 95 1016.3
20260906090546 51 0 0.0 1.0 0.00 0.02 0.00 95 1016.3
20260906090128 51 0 0.0 0.0 0.00 0.02 0.00 95 1016.3
20260906085546 51 0 0.0 0.0 0.00 0.02 0.00 95 1016.3
20260906085046 51 0 0.0 1.0 0.00 0.02 0.00 95 1016.3
20260906084559 51 0 0.0 1.0 0.00 0.02 0.00 95 1016.4
20260906084048 51 0 0.0 1.0 0.00 0.02 0.00 95 1016.4
20260906083548 51 0 0.0 0.0 0.00 0.02 0.00 95 1016.4
20260906083103 51 0 0.0 0.0 0.00 0.02 0.00 95 1016.5
20260906082547 51 0 0.0 1.0 0.00 0.02 0.00 95 1016.5
20260906082050 51 0 0.0 1.0 0.00 0.02 0.00 95 1016.5
20260906081601 51 0 0.0 1.0 0.00 0.02 0.00 95 1016.5
20260906081049 51 0 0.0 1.0 0.00 0.02 0.00 95 1016.4
20260906080546 52 0 0.0 0.0 0.00 0.02 0.00 94 1016.4
20260906080104 52 0 0.0 0.0 0.00 0.02 0.00 94 1016.5
20260906075546 52 0 0.0 3.0 0.00 0.02 0.00 94 1016.5
20260906075047 52 0 0.0 3.0 0.00 0.02 0.00 94 1016.6
20260906074559 52 0 1.0 3.0 0.00 0.02 0.00 94 1016.6
20260906074046 52 331 0.0 1.0 0.00 0.02 0.00 94 1016.6
20260906073548 52 0 0.0 0.0 0.00 0.02 0.00 94 1016.5
20260906073105 53 0 0.0 0.0 0.00 0.02 0.00 94 1016.5
20260906072547 53 0 0.0 0.0 0.00 0.02 0.00 94 1016.7
20260906072047 53 0 0.0 0.0 0.00 0.02 0.00 94 1016.7
20260906071609 53 0 0.0 0.0 0.00 0.02 0.00 94 1016.7
20260906071049 53 0 0.0 0.0 0.00 0.02 0.00 94 1016.7
20260906070547 53 0 0.0 0.0 0.00 0.02 0.00 94 1016.6
20260906070100 54 0 0.0 0.0 0.00 0.02 0.00 94 1016.6
20260906065550 54 0 0.0 1.0 0.00 0.02 0.02 94 1016.7
20260906065047 54 0 0.0 1.0 0.00 0.02 0.02 94 1016.7
20260906064557 54 0 0.0 1.0 0.00 0.02 0.02 94 1016.7
20260906064047 54 0 0.0 0.0 0.00 0.02 0.02 94 1016.5
20260906063547 54 0 0.0 1.0 0.00 0.02 0.02 93 1016.6
20260906063103 54 0 0.0 1.0 0.00 0.02 0.02 93 1016.5
20260906062546 54 0 0.0 1.0 0.00 0.02 0.02 93 1016.5
20260906062050 54 0 0.0 0.0 0.00 0.02 0.02 93 1016.5
20260906061558 54 0 0.0 0.0 0.00 0.02 0.02 93 1016.5
20260906061046 54 0 0.0 0.0 0.00 0.02 0.02 93 1016.5
20260906060546 55 0 0.0 0.0 0.00 0.02 0.02 93 1016.4
20260906060104 55 0 0.0 0.0 0.00 0.02 0.02 93 1016.5
20260906055547 55 0 0.0 0.0 0.00 0.02 0.02 93 1016.4
20260906055047 55 0 0.0 0.0 0.00 0.02 0.02 92 1016.5
20260906054603 55 0 0.0 0.0 0.00 0.02 0.02 92 1016.5
20260906054047 55 0 0.0 0.0 0.00 0.02 0.02 92 1016.5
20260906053547 55 0 0.0 0.0 0.00 0.02 0.02 92 1016.5
20260906053059 56 0 0.0 0.0 0.00 0.02 0.02 92 1016.6
20260906052547 56 0 0.0 0.0 0.00 0.02 0.02 92 1016.5
20260906052047 56 0 0.0 0.0 0.00 0.02 0.02 92 1016.6
20260906051606 56 0 0.0 0.0 0.00 0.02 0.02 92 1016.6
20260906051046 56 0 0.0 0.0 0.00 0.02 0.02 92 1016.5
20260906050549 56 0 0.0 0.0 0.00 0.02 0.02 92 1016.6
20260906050131 56 0 0.0 0.0 0.00 0.02 0.02 91 1016.7
20260906045546 56 0 0.0 0.0 0.00 0.02 0.02 91 1016.7
20260906045046 57 0 0.0 0.0 0.00 0.02 0.02 91 1016.7
20260906044601 57 0 0.0 0.0 0.00 0.02 0.02 91 1016.8
20260906044047 57 0 0.0 0.0 0.00 0.02 0.02 90 1016.8
20260906043546 57 0 0.0 0.0 0.00 0.02 0.02 90 1016.8
20260906043108 58 0 0.0 0.0 0.00 0.02 0.02 89 1016.8
20260906042546 58 0 0.0 1.0 0.00 0.02 0.02 89 1016.8
20260906042048 58 0 0.0 1.0 0.00 0.02 0.02 88 1016.9
20260906041556 59 0 0.0 1.0 0.00 0.02 0.02 87 1016.9
20260906041047 59 0 0.0 1.0 0.01 0.02 0.02 86 1017.0
20260906040546 60 0 0.0 0.0 0.01 0.02 0.02 85 1016.9
20260906040107 60 0 0.0 0.0 0.01 0.02 0.02 85 1017.0
20260906035546 60 0 0.0 0.0 0.01 0.02 0.02 85 1016.9
20260906035047 60 0 0.0 0.0 0.01 0.02 0.02 84 1016.9
20260906034600 60 0 0.0 0.0 0.01 0.02 0.02 83 1016.8
20260906034048 60 0 0.0 1.0 0.01 0.02 0.02 83 1016.8
20260906033546 61 0 0.0 1.0 0.01 0.02 0.02 82 1016.7
20260906033100 62 0 0.0 2.0 0.01 0.02 0.02 80 1016.7
20260906032546 63 0 0.0 2.0 0.01 0.02 0.02 76 1016.8
20260906032045 63 0 0.0 2.0 0.01 0.02 0.02 75 1016.7
20260906031557 64 0 0.0 1.0 0.01 0.02 0.02 71 1016.8
20260906031048 65 0 0.0 2.0 0.00 0.01 0.01 68 1016.8
20260906030546 65 0 0.0 2.0 0.00 0.01 0.01 66 1016.8
20260906030129 65 0 0.0 1.0 0.00 0.01 0.01 65 1016.7
20260906025547 66 0 0.0 0.0 0.00 0.01 0.01 62 1016.7
20260906025047 66 0 0.0 0.0 0.00 0.01 0.01 64 1016.7
20260906024603 66 0 0.0 1.0 0.00 0.01 0.01 62 1016.7
20260906024046 67 0 0.0 2.0 0.00 0.01 0.01 62 1016.6
20260906023546 67 0 0.0 3.0 0.00 0.01 0.01 62 1016.6
20260906023117 68 317 0.0 5.0 0.00 0.01 0.01 61 1016.6
20260906022551 68 317 0.0 5.0 0.00 0.01 0.01 60 1016.7
20260906022049 68 317 0.0 5.0 0.00 0.01 0.01 59 1016.6
20260906021612 68 311 1.0 5.0 0.00 0.01 0.01 59 1016.7
20260906021046 69 332 1.0 5.0 0.00 0.01 0.01 59 1016.7
20260906020547 69 299 1.0 5.0 0.00 0.01 0.01 57 1016.7
20260906020101 69 300 2.0 4.0 0.00 0.01 0.01 57 1016.6
20260906015545 70 328 1.0 6.0 0.00 0.03 0.01 56 1016.6
20260906015046 70 0 1.0 7.0 0.00 0.03 0.01 56 1016.5
20260906014613 70 321 1.0 7.0 0.00 0.03 0.01 56 1016.6
20260906014046 71 306 0.0 5.0 0.00 0.03 0.01 56 1016.6
20260906013547 71 306 2.0 5.0 0.00 0.03 0.01 55 1016.5
20260906013100 71 314 1.0 4.0 0.00 0.03 0.01 54 1016.6
20260906012547 71 287 0.0 5.0 0.00 0.03 0.01 55 1016.5
20260906012047 71 0 1.0 5.0 0.00 0.03 0.01 56 1016.5
20260906011604 71 306 2.0 9.0 0.00 0.03 0.01 55 1016.4
20260906011046 71 344 2.0 9.0 0.00 0.03 0.01 55 1016.4
20260906010544 71 300 2.0 9.0 0.00 0.03 0.01 54 1016.3
20260906005546 72 306 1.0 6.0 0.00 0.29 0.01 53 1016.3
20260906005046 72 360 2.0 6.0 0.00 0.29 0.01 51 1016.1
20260906004606 72 317 0.0 5.0 0.00 0.29 0.01 52 1016.1
20260906004047 72 0 1.0 5.0 0.00 0.29 0.01 52 1016.2
20260906003547 71 0 0.0 4.0 0.00 0.29 0.01 51 1016.2
20260906003108 71 0 2.0 4.0 0.00 0.29 0.01 50 1016.1
20260906002548 71 0 0.0 3.0 0.00 0.29 0.01 50 1016.1
20260906002047 72 0 0.0 5.0 0.00 0.29 0.01 51 1016.0
20260906001601 72 46 0.0 5.0 0.00 0.29 0.01 49 1016.1
20260906001044 72 324 2.0 5.0 0.00 0.29 0.01 49 1016.0
20260906000548 73 200 0.0 6.0 0.00 0.29 0.01 48 1016.0
20260906000107 72 0 0.0 6.0 0.00 0.29 0.01 49 1016.0
20260905235546 72 199 3.0 6.0 0.00 0.31 0.01 49 1016.0
20260905235049 73 278 1.0 5.0 0.00 0.31 0.01 47 1016.1
20260905234618 72 0 1.0 8.0 0.00 0.31 0.01 48 1016.2
20260905234048 71 198 1.0 8.0 0.00 0.31 0.01 49 1016.2
20260905233547 72 298 1.0 7.0 0.00 0.31 0.01 49 1016.2
20260905233102 72 0 1.0 8.0 0.00 0.31 0.01 50 1016.2
20260905232546 73 207 2.0 8.0 0.00 0.31 0.01 51 1016.2
20260905232046 72 211 4.0 8.0 0.00 0.31 0.01 52 1016.3
20260905231557 71 189 2.0 12.0 0.00 0.31 0.01 52 1016.2
20260905231049 71 151 4.0 12.0 0.00 0.31 0.01 51 1016.3
20260905230547 71 0 4.0 9.0 0.00 0.31 0.01 51 1016.3
20260905225548 72 203 3.0 10.0 0.00 0.31 0.01 47 1016.4
20260905225047 74 0 3.0 10.0 0.00 0.31 0.01 44 1016.4
20260905224606 74 215 1.0 6.0 0.00 0.31 0.01 48 1016.4
20260905224046 73 186 0.0 8.0 0.00 0.31 0.01 48 1016.5
20260905223546 73 216 3.0 9.0 0.00 0.31 0.01 47 1016.5
20260905223100 73 182 4.0 9.0 0.00 0.31 0.01 47 1016.6
20260905222549 72 211 3.0 10.0 0.00 0.31 0.01 47 1016.6
20260905222044 74 165 5.0 13.0 0.00 0.31 0.01 45 1016.6
20260905221605 73 150 5.0 13.0 0.00 0.31 0.01 47 1016.7
20260905221047 72 150 3.0 10.0 0.00 0.31 0.01 48 1016.7
20260905220551 73 0 1.0 8.0 0.00 0.31 0.01 48 1016.8
20260905220059 72 193 4.0 10.0 0.00 0.31 0.01 49 1016.8
20260905215548 73 173 3.0 10.0 0.00 0.31 0.01 49 1016.8
20260905215046 73 180 3.0 8.0 0.00 0.31 0.01 50 1016.8
20260905214606 71 325 1.0 6.0 0.00 0.31 0.01 52 1016.7
20260905214047 71 244 1.0 7.0 0.00 0.31 0.01 51 1016.7
20260905213547 73 215 2.0 8.0 0.00 0.31 0.01 49 1016.8
20260905213114 72 222 2.0 8.0 0.00 0.31 0.01 50 1016.8
20260905212545 70 292 3.0 8.0 0.00 0.31 0.01 52 1016.7
20260905212046 70 259 2.0 6.0 0.00 0.31 0.01 53 1016.9
20260905211601 70 252 2.0 6.0 0.00 0.31 0.01 52 1016.8
20260905211048 70 190 1.0 7.0 0.00 0.31 0.01 53 1016.9
20260905210548 69 242 2.0 7.0 0.00 0.31 0.01 52 1017.0
20260905210106 71 179 4.0 9.0 0.00 0.31 0.01 51 1017.0
20260905205547 71 159 3.0 9.0 0.00 0.31 0.01 53 1017.0
20260905205049 72 171 0.0 7.0 0.00 0.31 0.01 54 1016.9
20260905204558 71 165 3.0 7.0 0.00 0.31 0.01 52 1017.0
20260905204046 70 171 2.0 7.0 0.00 0.31 0.01 56 1017.1
20260905203550 71 163 3.0 7.0 0.00 0.31 0.01 53 1017.1
20260905203103 70 149 1.0 7.0 0.00 0.31 0.01 59 1017.1
20260905202546 69 0 0.0 7.0 0.00 0.31 0.01 60 1017.0
20260905202049 68 225 4.0 7.0 0.00 0.31 0.01 59 1017.1
20260905201606 68 235 2.0 6.0 0.00 0.31 0.01 62 1017.1
20260905201046 67 0 1.0 5.0 0.00 0.31 0.01 62 1017.1
20260905200546 68 241 1.0 5.0 0.00 0.31 0.01 63 1017.1
20260905195546 68 245 0.0 4.0 0.00 0.31 0.01 63 1017.1
20260905195046 66 209 2.0 5.0 0.00 0.31 0.01 65 1017.2
20260905194603 66 234 1.0 5.0 0.00 0.31 0.01 65 1017.2
20260905194046 67 234 1.0 6.0 0.00 0.31 0.01 65 1017.2
20260905193547 66 0 1.0 7.0 0.00 0.31 0.01 67 1017.2
20260905193102 65 322 0.0 7.0 0.00 0.31 0.01 67 1017.2
20260905192547 65 0 2.0 7.0 0.00 0.31 0.01 64 1017.3
20260905192047 65 186 1.0 6.0 0.00 0.31 0.01 68 1017.4
20260905191612 65 281 0.0 5.0 0.00 0.31 0.01 68 1017.4
20260905191045 65 0 1.0 5.0 0.00 0.31 0.01 68 1017.4
20260905190549 66 219 0.0 5.0 0.00 0.31 0.01 68 1017.4
20260905190104 65 0 2.0 8.0 0.00 0.31 0.01 68 1017.5
20260905185549 65 0 2.0 8.0 0.00 0.31 0.01 70 1017.4
20260905185048 65 196 0.0 6.0 0.00 0.31 0.01 71 1017.6
20260905184616 65 186 3.0 6.0 0.00 0.31 0.01 71 1017.6
20260905184046 64 149 0.0 7.0 0.00 0.31 0.01 71 1017.5
20260905183549 64 145 0.0 7.0 0.00 0.31 0.01 71 1017.6